When you browse on this site, cookies collect data to enhance your experience and personalize the content and advertising you see.
Visit our Privacy Policy to learn more. By continuing to use the site, you agree to this use of cookies and data.
  • In Portugal
  • List of Countries
  • For 7 days
  • Water Temperature
  • Satellite Maps
  • Weather Map
  • Weather Widgets
  • user-avatar
    Login

    Hourly Weather Kanye

    Today, 23 February, Saturday

    Time Temperature Precipitation Wind Pressure Humidity
    00:00 +25°C° 0 mm 2 mps 651 mmHg 47%
    01:00 +24°C° 0 mm 3 mps 651 mmHg 51%
    02:00 +23°C° 0 mm 4 mps 652 mmHg 57%
    03:00 +22°C° 0 mm 4 mps 652 mmHg 59%
    04:00 +22°C° 0 mm 3 mps 651 mmHg 62%
    05:00 +21°C° 0 mm 3 mps 651 mmHg 65%
    06:00 +22°C° 0 mm 4 mps 652 mmHg 63%
    07:00 +22°C° 0 mm 4 mps 652 mmHg 62%
    08:00 +23°C° 0 mm 5 mps 653 mmHg 57%
    09:00 +26°C° 0 mm 5 mps 653 mmHg 50%
    10:00 +28°C° 0 mm 5 mps 653 mmHg 43%
    11:00 +32°C° 0 mm 5 mps 653 mmHg 36%
    12:00 +33°C° 0 mm 5 mps 653 mmHg 32%
    13:00 +35°C° 0 mm 5 mps 653 mmHg 28%
    14:00 +35°C° 0 mm 5 mps 652 mmHg 29%
    15:00 +35°C° 0 mm 5 mps 652 mmHg 27%
    16:00 +35°C° 0 mm 4 mps 651 mmHg 26%
    17:00 +35°C° 0 mm 4 mps 651 mmHg 24%
    18:00 +33°C° 0 mm 3 mps 650 mmHg 28%
    19:00 +30°C° 0 mm 3 mps 650 mmHg 31%
    20:00 +28°C° 0 mm 2 mps 649 mmHg 34%
    21:00 +28°C° 0 mm 2 mps 650 mmHg 34%
    22:00 +28°C° 0 mm 2 mps 650 mmHg 34%
    23:00 +28°C° 0 mm 3 mps 650 mmHg 34%

    Tomorrow, 24 February, Sunday

    Time Temperature Precipitation Wind Pressure Humidity
    00:00 +27°C° 0 mm 3 mps 650 mmHg 36%
    01:00 +25°C° 0 mm 3 mps 649 mmHg 37%
    02:00 +24°C° 0 mm 3 mps 649 mmHg 39%
    03:00 +23°C° 0 mm 2 mps 649 mmHg 34%
    04:00 +23°C° 0 mm 2 mps 649 mmHg 28%
    05:00 +21°C° 0 mm 2 mps 648 mmHg 23%
    06:00 +23°C° 0 mm 2 mps 649 mmHg 22%
    07:00 +25°C° 0 mm 2 mps 650 mmHg 21%
    08:00 +26°C° 0 mm 2 mps 651 mmHg 20%
    09:00 +29°C° 0 mm 2 mps 651 mmHg 18%
    10:00 +31°C° 0 mm 2 mps 652 mmHg 16%
    11:00 +34°C° 0 mm 2 mps 652 mmHg 14%
    12:00 +35°C° 0 mm 3 mps 652 mmHg 13%
    13:00 +36°C° 0 mm 4 mps 651 mmHg 11%
    14:00 +37°C° 0 mm 4 mps 651 mmHg 10%
    15:00 +37°C° 0 mm 4 mps 651 mmHg 10%
    16:00 +36°C° 0 mm 4 mps 650 mmHg 11%
    17:00 +36°C° 0 mm 4 mps 650 mmHg 11%
    18:00 +33°C° 0 mm 3 mps 649 mmHg 13%
    19:00 +30°C° 0 mm 2 mps 649 mmHg 15%
    20:00 +27°C° 0 mm 1 mps 648 mmHg 18%
    21:00 +26°C° 0 mm 2 mps 649 mmHg 17%
    22:00 +26°C° 0 mm 2 mps 649 mmHg 16%
    23:00 +25°C° 0 mm 3 mps 649 mmHg 15%

    Day after tomorrow, 25 February, Monday

    Time Temperature Precipitation Wind Pressure Humidity
    00:00 +25°C° 0 mm 3 mps 649 mmHg 16%
    01:00 +24°C° 0 mm 3 mps 648 mmHg 17%
    02:00 +22°C° 0 mm 3 mps 648 mmHg 17%
    03:00 +21°C° 0 mm 4 mps 648 mmHg 20%
    04:00 +21°C° 0 mm 4 mps 648 mmHg 22%
    05:00 +20°C° 0 mm 4 mps 648 mmHg 25%
    06:00 +21°C° 0 mm 4 mps 649 mmHg 26%
    07:00 +22°C° 0 mm 5 mps 649 mmHg 28%
    08:00 +23°C° 0 mm 5 mps 650 mmHg 29%
    09:00 +27°C° 0 mm 4 mps 651 mmHg 26%
    10:00 +30°C° 0 mm 3 mps 651 mmHg 23%
    11:00 +33°C° 0 mm 3 mps 652 mmHg 20%
    12:00 +35°C° 0 mm 3 mps 652 mmHg 18%
    13:00 +36°C° 0 mm 3 mps 651 mmHg 16%
    14:00 +37°C° 0 mm 3 mps 651 mmHg 14%
    15:00 +37°C° 0 mm 3 mps 650 mmHg 14%
    16:00 +37°C° 0 mm 4 mps 650 mmHg 13%
    17:00 +36°C° 0 mm 4 mps 650 mmHg 12%
    18:00 +34°C° 0 mm 4 mps 649 mmHg 14%
    19:00 +30°C° 0 mm 3 mps 649 mmHg 15%
    20:00 +27°C° 0 mm 2 mps 649 mmHg 17%
    21:00 +27°C° 0 mm 3 mps 649 mmHg 16%
    22:00 +26°C° 0 mm 3 mps 649 mmHg 16%
    23:00 +25°C° 0 mm 4 mps 650 mmHg 16%

    26 February, Tuesday

    Time Temperature Precipitation Wind Pressure Humidity
    00:00 +24°C° 0 mm 3 mps 649 mmHg 15%
    01:00 +24°C° 0 mm 3 mps 649 mmHg 15%
    02:00 +22°C° 0 mm 3 mps 649 mmHg 14%
    03:00 +21°C° 0 mm 3 mps 649 mmHg 15%
    04:00 +21°C° 0 mm 2 mps 649 mmHg 15%
    05:00 +20°C° 0 mm 2 mps 649 mmHg 16%
    06:00 +21°C° 0 mm 3 mps 649 mmHg 21%
    07:00 +22°C° 0 mm 3 mps 650 mmHg 26%
    08:00 +25°C° 0 mm 3 mps 651 mmHg 31%
    09:00 +27°C° 0 mm 3 mps 651 mmHg 30%
    10:00 +29°C° 0 mm 3 mps 651 mmHg 29%
    11:00 +33°C° 0 mm 3 mps 652 mmHg 28%
    12:00 +34°C° 0 mm 3 mps 651 mmHg 24%
    13:00 +35°C° 0 mm 3 mps 651 mmHg 20%
    14:00 +36°C° 0 mm 3 mps 651 mmHg 16%
    15:00 +36°C° 0 mm 4 mps 650 mmHg 15%
    16:00 +36°C° 0 mm 4 mps 650 mmHg 14%
    17:00 +36°C° 0 mm 4 mps 649 mmHg 12%
    18:00 +34°C° 0 mm 4 mps 649 mmHg 14%
    19:00 +30°C° 0 mm 3 mps 649 mmHg 16%
    20:00 +28°C° 0 mm 2 mps 648 mmHg 18%
    21:00 +27°C° 0 mm 2 mps 648 mmHg 19%
    22:00 +26°C° 0 mm 2 mps 649 mmHg 20%
    23:00 +25°C° 0 mm 2 mps 649 mmHg 21%

    27 February, Wednesday

    Time Temperature Precipitation Wind Pressure Humidity
    00:00 +24°C° 0 mm 2 mps 648 mmHg 23%
    01:00 +23°C° 0 mm 2 mps 648 mmHg 24%
    02:00 +21°C° 0 mm 2 mps 648 mmHg 26%
    03:00 +22°C° 0 mm 1 mps 648 mmHg 26%
    04:00 +21°C° 0 mm 1 mps 647 mmHg 27%
    05:00 +21°C° 0 mm 1 mps 647 mmHg 28%
    06:00 +22°C° 0 mm 1 mps 648 mmHg 27%
    07:00 +24°C° 0 mm 1 mps 649 mmHg 26%
    08:00 +24°C° 0 mm 0 mps 650 mmHg 25%
    09:00 +28°C° 0 mm 1 mps 651 mmHg 22%
    10:00 +31°C° 0 mm 1 mps 652 mmHg 20%
    11:00 +33°C° 0 mm 1 mps 652 mmHg 17%
    12:00 +35°C° 0 mm 2 mps 652 mmHg 16%
    13:00 +35°C° 0 mm 3 mps 651 mmHg 15%
    14:00 +36°C° 0 mm 3 mps 651 mmHg 14%
    15:00 +36°C° 0 mm 4 mps 651 mmHg 14%
    16:00 +36°C° 0 mm 4 mps 651 mmHg 14%
    17:00 +36°C° 0 mm 5 mps 650 mmHg 14%
    18:00 +33°C° 0 mm 4 mps 650 mmHg 16%
    19:00 +30°C° 0 mm 3 mps 650 mmHg 19%
    20:00 +27°C° 0 mm 2 mps 650 mmHg 22%
    21:00 +26°C° 0 mm 3 mps 650 mmHg 22%
    22:00 +25°C° 0 mm 3 mps 650 mmHg 23%
    23:00 +25°C° 0 mm 3 mps 650 mmHg 24%

    28 February, Thursday

    Time Temperature Precipitation Wind Pressure Humidity
    00:00 +24°C° 0 mm 3 mps 650 mmHg 23%
    01:00 +22°C° 0 mm 3 mps 650 mmHg 22%
    02:00 +21°C° 0 mm 4 mps 650 mmHg 21%
    03:00 +21°C° 0 mm 3 mps 650 mmHg 22%
    04:00 +20°C° 0 mm 3 mps 650 mmHg 23%
    05:00 +19°C° 0 mm 3 mps 650 mmHg 24%
    06:00 +21°C° 0 mm 3 mps 651 mmHg 25%
    07:00 +22°C° 0 mm 3 mps 652 mmHg 25%
    08:00 +24°C° 0 mm 3 mps 652 mmHg 26%
    09:00 +27°C° 0 mm 4 mps 653 mmHg 28%
    10:00 +29°C° 0 mm 4 mps 653 mmHg 31%
    11:00 +32°C° 0 mm 5 mps 653 mmHg 33%
    12:00 +34°C° 0 mm 4 mps 653 mmHg 28%
    13:00 +35°C° 0 mm 4 mps 653 mmHg 23%
    14:00 +36°C° 0 mm 3 mps 652 mmHg 18%
    15:00 +37°C° 0 mm 3 mps 652 mmHg 16%
    16:00 +37°C° 0 mm 3 mps 652 mmHg 14%
    17:00 +37°C° 0 mm 3 mps 652 mmHg 11%
    18:00 +34°C° 0 mm 3 mps 651 mmHg 13%
    19:00 +30°C° 0 mm 3 mps 651 mmHg 15%
    20:00 +27°C° 0 mm 2 mps 650 mmHg 16%
    21:00 +26°C° 0 mm 2 mps 650 mmHg 23%
    22:00 +25°C° 0 mm 2 mps 650 mmHg 30%
    23:00 +23°C° 0 mm 2 mps 650 mmHg 37%
    Show more